Location: Les Salelles
(44.4192°N, 4.1044°E)
Time: 15:43:39
(UTC+00:00)

ARGOS - Pass Details

Date: 20 January 2021
Orbit: 821 x 834 km, 98.4° (Epoch: 26 February)

Event Time Altitude Azimuth Distance (km) Brightness Sun altitude
Rises 17:30:24 0° 126° (SE) 3,345 6.0 -9.7°
Reaches altitude 10° 17:33:11 10° 112° (ESE) 2,418 5.1 -10.1°
Maximum altitude 17:37:16 23° 62° (ENE) 1,699 4.2 -10.8°
Drops below altitude 10° 17:41:22 10° 12° (NNE) 2,434 5.3 -11.5°
Sets 17:44:10 0° 358° (N) 3,374 6.2 -12.0°
